Humidity-temperature Sensor

Selected Measurement Type: Relative Humidity

 
Relative Humidity [%]     6 entries per hour
Showing data from 2/9/2023 (00:00:00 Z) to 2/8/2023 (00:01:00 Z)
Previous Next [ Day | 3-Days | 7-Days ]
First Last
Prev [ Day | 3-Days | 7-Days ] Next
First Last

Start Time:     :
End Time:     :     
Time (in GMT) :00 :50 :40 :30 :20 :10
Previous Next [ Day | 3-Days | 7-Days ]
First Last
Prev [ Day | 3-Days | 7-Days ] Next
First Last


123 => good data
MM => data is determined as missing
-- => data not received/configured
Back to Top Back to Top
2/9/2023 00:00 to 23:10 90.37 90.35 90.33 90.45 90.27 90.18
2/8/2023 23:00 to 22:10 90.47 90.31 90.37 89.96 89.36 89.42
2/8/2023 22:00 to 21:10 89.46 89.38 89.18 89.16 89.44 89.81
2/8/2023 21:00 to 20:10 89.83 89.77 89.83 89.57 89.48 89.73
2/8/2023 20:00 to 19:10 89.94 90.10 90.20 90.57 90.51 90.39
2/8/2023 19:00 to 18:10 90.20 89.48 89.26 89.55 89.96 90.08
2/8/2023 18:00 to 17:10 89.73 89.90 89.63 89.77 89.77 89.98
2/8/2023 17:00 to 16:10 90.06 89.87 90.04 90.22 90.51 90.57
2/8/2023 16:00 to 15:10 90.70 90.76 90.53 90.37 90.06 90.16
2/8/2023 15:00 to 14:10 89.94 89.98 90.08 90.18 90.31 90.43
2/8/2023 14:00 to 13:10 90.39 90.72 90.66 90.98 91.05 91.07
2/8/2023 13:00 to 12:10 91.00 91.11 91.37 91.37 91.17 91.29
2/8/2023 12:00 to 11:10 91.37 91.27 91.15 91.21 91.09 91.17
2/8/2023 11:00 to 10:10 91.07 91.23 91.44 91.70 91.64 91.42
2/8/2023 10:00 to 9:10 91.42 91.11 91.03 91.05 91.23 91.29
2/8/2023 09:00 to 8:10 91.42 91.19 91.17 91.00 91.07 90.94
2/8/2023 08:00 to 7:10 91.07 90.98 90.70 91.05 91.40 91.52
2/8/2023 07:00 to 6:10 91.97 92.26 91.99 92.05 91.97 91.89
2/8/2023 06:00 to 5:10 91.77 91.83 92.09 92.14 92.40 92.44
2/8/2023 05:00 to 4:10 92.32 92.63 92.83 92.79 92.69 92.50
2/8/2023 04:00 to 3:10 92.48 92.22 92.20 92.09 92.09 91.95
2/8/2023 03:00 to 2:10 92.24 92.30 92.14 92.22 92.07 92.03
2/8/2023 02:00 to 1:10 92.22 91.99 91.40 91.33 91.40 91.40
2/8/2023 01:00 to 0:10 91.21 90.63 90.06 89.13 88.27 87.76